Location: Unspecified
(0.0000°N, 0.0000°E)
Time: 13:33:28
(UTC+00:00)

JUGNU - Pass Details

Date: 24 February 2020
Orbit: 836 x 864 km, 20.0° (Epoch: 01 April)

Event Time Altitude Azimuth Distance (km) Brightness Sun altitude
Exits shadow 04:29:38 19° 204° (SSW) 1,935 ? -25.5°
Maximum altitude 04:32:38 28° 162° (SSE) 1,554 ? -24.8°
Drops below altitude 10° 04:37:40 10° 104° (ESE) 2,482 ? -23.6°
Sets 04:40:36 0° 93° (E) 3,421 ? -22.8°
